When you browse on this site, cookies collect data to enhance your experience and personalize the content and advertising you see.
Visit our Privacy Policy to learn more. By continuing to use the site, you agree to this use of cookies and data.
  • In Spain
  • List of Countries
  • For 7 days
  • Water Temperature
  • Satellite Maps
  • Weather Map
  • Weather Widgets
  • user-avatar
    Login

    Hourly Weather Birevo

    Today, 22 March, Friday

    Time Temperature Precipitation Wind Pressure Humidity
    00:00 -2°C° 0 mm 2 mps 744 mmHg 94%
    01:00 -2°C° 0 mm 2 mps 744 mmHg 93%
    02:00 -2°C° 0 mm 2 mps 744 mmHg 93%
    03:00 -2°C° 0 mm 2 mps 743 mmHg 92%
    04:00 -2°C° 0 mm 3 mps 743 mmHg 92%
    05:00 -2°C° 0 mm 3 mps 742 mmHg 92%
    06:00 -3°C° 0 mm 4 mps 742 mmHg 92%
    07:00 -2°C° 0.2 mm 5 mps 740 mmHg 89%
    08:00 -1°C° 0.2 mm 5 mps 739 mmHg 87%
    09:00 -1°C° 0.2 mm 6 mps 738 mmHg 84%
    10:00 -1°C° 1 mm 7 mps 737 mmHg 86%
    11:00 -1°C° 1 mm 7 mps 736 mmHg 88%
    12:00 -1°C° 1 mm 7 mps 735 mmHg 90%
    13:00 -1°C° 0.8 mm 8 mps 735 mmHg 89%
    14:00 -1°C° 0.8 mm 8 mps 735 mmHg 88%
    15:00 -1°C° 0.8 mm 8 mps 735 mmHg 87%
    16:00 -2°C° 0.4 mm 8 mps 735 mmHg 86%
    17:00 -3°C° 0.4 mm 9 mps 735 mmHg 84%
    18:00 -4°C° 0.4 mm 9 mps 736 mmHg 82%
    19:00 -4°C° 0.2 mm 8 mps 736 mmHg 83%
    20:00 -4°C° 0.2 mm 8 mps 737 mmHg 83%
    21:00 -5°C° 0.2 mm 8 mps 737 mmHg 84%
    22:00 -4°C° 0.1 mm 7 mps 737 mmHg 85%
    23:00 -4°C° 0.1 mm 7 mps 737 mmHg 86%

    Tomorrow, 23 March, Saturday

    Time Temperature Precipitation Wind Pressure Humidity
    00:00 -4°C° 0.1 mm 7 mps 737 mmHg 87%
    01:00 -4°C° 0.2 mm 7 mps 737 mmHg 88%
    02:00 -4°C° 0.2 mm 7 mps 738 mmHg 89%
    03:00 -3°C° 0.2 mm 7 mps 738 mmHg 90%
    04:00 -3°C° 0.1 mm 7 mps 739 mmHg 90%
    05:00 -3°C° 0.1 mm 7 mps 739 mmHg 90%
    06:00 -3°C° 0.1 mm 7 mps 740 mmHg 91%
    07:00 -3°C° 0 mm 6 mps 741 mmHg 90%
    08:00 -3°C° 0 mm 6 mps 742 mmHg 90%
    09:00 -3°C° 0 mm 6 mps 743 mmHg 90%
    10:00 -3°C° 0 mm 6 mps 744 mmHg 89%
    11:00 -3°C° 0 mm 6 mps 744 mmHg 89%
    12:00 -2°C° 0 mm 5 mps 745 mmHg 88%
    13:00 -2°C° 0 mm 5 mps 745 mmHg 87%
    14:00 -2°C° 0 mm 4 mps 745 mmHg 86%
    15:00 -2°C° 0 mm 4 mps 745 mmHg 85%
    16:00 -1°C° 0 mm 3 mps 745 mmHg 86%
    17:00 -1°C° 0 mm 3 mps 746 mmHg 87%
    18:00 -1°C° 0 mm 2 mps 746 mmHg 88%
    19:00 -1°C° 0 mm 2 mps 746 mmHg 88%
    20:00 +1°C° 0 mm 1 mps 746 mmHg 88%
    21:00 0°C° 0 mm 1 mps 746 mmHg 88%
    22:00 0°C° 0 mm 1 mps 746 mmHg 87%
    23:00 0°C° 0 mm 1 mps 745 mmHg 86%

    Day after tomorrow, 24 March, Sunday

    Time Temperature Precipitation Wind Pressure Humidity
    00:00 -1°C° 0 mm 0 mps 745 mmHg 85%
    01:00 0°C° 0 mm 1 mps 745 mmHg 86%
    02:00 -1°C° 0 mm 1 mps 744 mmHg 86%
    03:00 -3°C° 0 mm 2 mps 744 mmHg 87%
    04:00 -3°C° 0 mm 2 mps 744 mmHg 87%
    05:00 -3°C° 0 mm 2 mps 743 mmHg 87%
    06:00 -4°C° 0 mm 3 mps 742 mmHg 87%
    07:00 -4°C° 0 mm 3 mps 742 mmHg 86%
    08:00 -3°C° 0 mm 4 mps 742 mmHg 86%
    09:00 -4°C° 0 mm 5 mps 741 mmHg 85%
    10:00 -4°C° 0.3 mm 5 mps 741 mmHg 87%
    11:00 -2°C° 0.3 mm 5 mps 740 mmHg 89%
    12:00 -3°C° 0.3 mm 6 mps 740 mmHg 91%
    13:00 -2°C° 0.1 mm 5 mps 739 mmHg 91%
    14:00 -1°C° 0.1 mm 5 mps 739 mmHg 92%
    15:00 -1°C° 0.1 mm 5 mps 738 mmHg 92%
    16:00 -1°C° 0 mm 4 mps 738 mmHg 92%
    17:00 -1°C° 0 mm 4 mps 738 mmHg 93%
    18:00 0°C° 0 mm 3 mps 738 mmHg 93%
    19:00 0°C° 0.1 mm 3 mps 738 mmHg 92%
    20:00 0°C° 0.1 mm 3 mps 738 mmHg 90%
    21:00 -1°C° 0.1 mm 3 mps 738 mmHg 89%
    22:00 -1°C° 0 mm 3 mps 738 mmHg 88%
    23:00 -2°C° 0 mm 3 mps 737 mmHg 88%

    25 March, Monday

    Time Temperature Precipitation Wind Pressure Humidity
    00:00 -4°C° 0 mm 3 mps 737 mmHg 88%
    01:00 -4°C° 0 mm 3 mps 737 mmHg 88%
    02:00 -4°C° 0 mm 3 mps 737 mmHg 88%
    03:00 -5°C° 0 mm 3 mps 738 mmHg 88%
    04:00 -5°C° 0 mm 3 mps 738 mmHg 89%
    05:00 -5°C° 0 mm 3 mps 738 mmHg 90%
    06:00 -5°C° 0 mm 3 mps 738 mmHg 91%
    07:00 -5°C° 0 mm 4 mps 738 mmHg 89%
    08:00 -4°C° 0 mm 4 mps 738 mmHg 86%
    09:00 -3°C° 0 mm 4 mps 738 mmHg 84%
    10:00 -4°C° 0 mm 5 mps 738 mmHg 80%
    11:00 -2°C° 0 mm 5 mps 739 mmHg 76%
    12:00 -1°C° 0 mm 5 mps 739 mmHg 72%
    13:00 -1°C° 0.1 mm 5 mps 739 mmHg 71%
    14:00 -1°C° 0.1 mm 5 mps 738 mmHg 69%
    15:00 -1°C° 0.1 mm 5 mps 738 mmHg 67%
    16:00 -1°C° 0 mm 4 mps 739 mmHg 69%
    17:00 -2°C° 0 mm 4 mps 739 mmHg 70%
    18:00 -1°C° 0 mm 3 mps 739 mmHg 72%
    19:00 -2°C° 0 mm 3 mps 739 mmHg 74%
    20:00 -2°C° 0 mm 2 mps 739 mmHg 76%
    21:00 -3°C° 0 mm 2 mps 740 mmHg 78%
    22:00 -3°C° 0 mm 2 mps 740 mmHg 78%
    23:00 -4°C° 0 mm 3 mps 740 mmHg 79%

    26 March, Tuesday

    Time Temperature Precipitation Wind Pressure Humidity
    00:00 -4°C° 0 mm 3 mps 740 mmHg 79%
    01:00 -4°C° 0 mm 3 mps 740 mmHg 80%
    02:00 -4°C° 0 mm 3 mps 740 mmHg 81%
    03:00 -4°C° 0 mm 4 mps 740 mmHg 81%
    04:00 -4°C° 0 mm 4 mps 740 mmHg 81%
    05:00 -4°C° 0 mm 4 mps 739 mmHg 81%
    06:00 -4°C° 0 mm 4 mps 739 mmHg 80%
    07:00 -3°C° 0 mm 4 mps 740 mmHg 76%
    08:00 -2°C° 0 mm 5 mps 740 mmHg 71%
    09:00 -2°C° 0 mm 6 mps 740 mmHg 67%
    10:00 -1°C° 0 mm 6 mps 740 mmHg 62%
    11:00 +1°C° 0 mm 6 mps 740 mmHg 57%
    12:00 +2°C° 0 mm 6 mps 740 mmHg 53%
    13:00 +2°C° 0.1 mm 5 mps 740 mmHg 55%
    14:00 +2°C° 0.1 mm 5 mps 740 mmHg 57%
    15:00 +3°C° 0.1 mm 4 mps 740 mmHg 59%
    16:00 +1°C° 0.3 mm 4 mps 740 mmHg 69%
    17:00 0°C° 0.3 mm 3 mps 740 mmHg 79%
    18:00 -1°C° 0.3 mm 2 mps 740 mmHg 88%
    19:00 -1°C° 0 mm 2 mps 740 mmHg 88%
    20:00 -2°C° 0 mm 2 mps 740 mmHg 89%
    21:00 -1°C° 0 mm 1 mps 740 mmHg 89%
    22:00 -3°C° 0 mm 2 mps 739 mmHg 86%
    23:00 -3°C° 0 mm 2 mps 739 mmHg 83%

    27 March, Wednesday

    Time Temperature Precipitation Wind Pressure Humidity
    00:00 -3°C° 0 mm 2 mps 739 mmHg 81%
    01:00 -4°C° 0 mm 3 mps 738 mmHg 78%
    02:00 -4°C° 0 mm 4 mps 738 mmHg 75%
    03:00 -4°C° 0 mm 5 mps 737 mmHg 72%
    04:00 -4°C° 0.1 mm 5 mps 737 mmHg 76%
    05:00 -4°C° 0.1 mm 4 mps 736 mmHg 79%
    06:00 -4°C° 0.1 mm 4 mps 736 mmHg 82%
    07:00 -4°C° 0.8 mm 5 mps 735 mmHg 84%
    08:00 -4°C° 0.8 mm 5 mps 735 mmHg 85%
    09:00 -4°C° 0.8 mm 6 mps 735 mmHg 86%
    10:00 -2°C° 0.1 mm 5 mps 735 mmHg 81%
    11:00 -2°C° 0.1 mm 5 mps 735 mmHg 77%
    12:00 -2°C° 0.1 mm 4 mps 736 mmHg 72%
    13:00 -1°C° 0.3 mm 5 mps 736 mmHg 69%
    14:00 -1°C° 0.3 mm 5 mps 736 mmHg 66%
    15:00 -1°C° 0.3 mm 5 mps 737 mmHg 64%
    16:00 -1°C° 0.1 mm 5 mps 737 mmHg 66%
    17:00 -2°C° 0.1 mm 5 mps 738 mmHg 68%
    18:00 -2°C° 0.1 mm 5 mps 738 mmHg 70%
    19:00 -4°C° 0 mm 5 mps 739 mmHg 74%
    20:00 -4°C° 0 mm 5 mps 740 mmHg 78%
    21:00 -4°C° 0 mm 6 mps 741 mmHg 82%
    22:00 -5°C° 0 mm 5 mps 742 mmHg 84%
    23:00 -5°C° 0 mm 5 mps 742 mmHg 86%
    Show more